Index of /20260502/WXO-DD/model_rdps/10km/18/014
Name Last modified Size Description
Parent Directory -
20260502T18Z_MSC_RDPS_AbsoluteVorticity_IsbL-0250_RLatLon0.09_PT014H.grib2 2026-05-02 20:43 617K
20260502T18Z_MSC_RDPS_AbsoluteVorticity_IsbL-0500_RLatLon0.09_PT014H.grib2 2026-05-02 20:43 699K
20260502T18Z_MSC_RDPS_AbsoluteVorticity_IsbL-0700_RLatLon0.09_PT014H.grib2 2026-05-02 20:43 627K
20260502T18Z_MSC_RDPS_AbsoluteVorticity_IsbL-0850_RLatLon0.09_PT014H.grib2 2026-05-02 20:43 786K
20260502T18Z_MSC_RDPS_AirTemp_AGL-120m_RLatLon0.09_PT014H.grib2 2026-05-02 20:43 377K
20260502T18Z_MSC_RDPS_AirTemp_AGL-2m_RLatLon0.09_PT014H.grib2 2026-05-02 20:43 634K
20260502T18Z_MSC_RDPS_AirTemp_AGL-40m_RLatLon0.09_PT014H.grib2 2026-05-02 20:43 393K
20260502T18Z_MSC_RDPS_AirTemp_AGL-80m_RLatLon0.09_PT014H.grib2 2026-05-02 20:43 384K
20260502T18Z_MSC_RDPS_AirTemp_IsbL-0001_RLatLon0.09_PT014H.grib2 2026-05-02 20:43 247K
20260502T18Z_MSC_RDPS_AirTemp_IsbL-0005_RLatLon0.09_PT014H.grib2 2026-05-02 20:43 280K
20260502T18Z_MSC_RDPS_AirTemp_IsbL-0010_RLatLon0.09_PT014H.grib2 2026-05-02 20:43 289K
20260502T18Z_MSC_RDPS_AirTemp_IsbL-0020_RLatLon0.09_PT014H.grib2 2026-05-02 20:43 400K
20260502T18Z_MSC_RDPS_AirTemp_IsbL-0030_RLatLon0.09_PT014H.grib2 2026-05-02 20:43 329K
20260502T18Z_MSC_RDPS_AirTemp_IsbL-0050_RLatLon0.09_PT014H.grib2 2026-05-02 20:43 311K
20260502T18Z_MSC_RDPS_AirTemp_IsbL-0100_RLatLon0.09_PT014H.grib2 2026-05-02 20:43 388K
20260502T18Z_MSC_RDPS_AirTemp_IsbL-0150_RLatLon0.09_PT014H.grib2 2026-05-02 20:43 419K
20260502T18Z_MSC_RDPS_AirTemp_IsbL-0175_RLatLon0.09_PT014H.grib2 2026-05-02 20:43 407K
20260502T18Z_MSC_RDPS_AirTemp_IsbL-0200_RLatLon0.09_PT014H.grib2 2026-05-02 20:43 414K
20260502T18Z_MSC_RDPS_AirTemp_IsbL-0225_RLatLon0.09_PT014H.grib2 2026-05-02 20:43 417K
20260502T18Z_MSC_RDPS_AirTemp_IsbL-0250_RLatLon0.09_PT014H.grib2 2026-05-02 20:43 424K
20260502T18Z_MSC_RDPS_AirTemp_IsbL-0275_RLatLon0.09_PT014H.grib2 2026-05-02 20:43 406K
20260502T18Z_MSC_RDPS_AirTemp_IsbL-0300_RLatLon0.09_PT014H.grib2 2026-05-02 20:43 413K
20260502T18Z_MSC_RDPS_AirTemp_IsbL-0350_RLatLon0.09_PT014H.grib2 2026-05-02 20:43 427K
20260502T18Z_MSC_RDPS_AirTemp_IsbL-0400_RLatLon0.09_PT014H.grib2 2026-05-02 20:43 427K
20260502T18Z_MSC_RDPS_AirTemp_IsbL-0450_RLatLon0.09_PT014H.grib2 2026-05-02 20:43 401K
20260502T18Z_MSC_RDPS_AirTemp_IsbL-0500_RLatLon0.09_PT014H.grib2 2026-05-02 20:43 413K
20260502T18Z_MSC_RDPS_AirTemp_IsbL-0550_RLatLon0.09_PT014H.grib2 2026-05-02 20:43 429K
20260502T18Z_MSC_RDPS_AirTemp_IsbL-0600_RLatLon0.09_PT014H.grib2 2026-05-02 20:43 445K
20260502T18Z_MSC_RDPS_AirTemp_IsbL-0650_RLatLon0.09_PT014H.grib2 2026-05-02 20:43 459K
20260502T18Z_MSC_RDPS_AirTemp_IsbL-0700_RLatLon0.09_PT014H.grib2 2026-05-02 20:43 484K
20260502T18Z_MSC_RDPS_AirTemp_IsbL-0750_RLatLon0.09_PT014H.grib2 2026-05-02 20:43 521K
20260502T18Z_MSC_RDPS_AirTemp_IsbL-0800_RLatLon0.09_PT014H.grib2 2026-05-02 20:43 452K
20260502T18Z_MSC_RDPS_AirTemp_IsbL-0850_RLatLon0.09_PT014H.grib2 2026-05-02 20:43 625K
20260502T18Z_MSC_RDPS_AirTemp_IsbL-0875_RLatLon0.09_PT014H.grib2 2026-05-02 20:43 521K
20260502T18Z_MSC_RDPS_AirTemp_IsbL-0900_RLatLon0.09_PT014H.grib2 2026-05-02 20:43 529K
20260502T18Z_MSC_RDPS_AirTemp_IsbL-0925_RLatLon0.09_PT014H.grib2 2026-05-02 20:43 522K
20260502T18Z_MSC_RDPS_AirTemp_IsbL-0950_RLatLon0.09_PT014H.grib2 2026-05-02 20:43 524K
20260502T18Z_MSC_RDPS_AirTemp_IsbL-0970_RLatLon0.09_PT014H.grib2 2026-05-02 20:43 516K
20260502T18Z_MSC_RDPS_AirTemp_IsbL-0985_RLatLon0.09_PT014H.grib2 2026-05-02 20:43 506K
20260502T18Z_MSC_RDPS_AirTemp_IsbL-1000_RLatLon0.09_PT014H.grib2 2026-05-02 20:43 489K
20260502T18Z_MSC_RDPS_AirTemp_IsbL-1015_RLatLon0.09_PT014H.grib2 2026-05-02 20:43 488K
20260502T18Z_MSC_RDPS_Albedo_Sfc_RLatLon0.09_PT014H.grib2 2026-05-02 20:43 160K
20260502T18Z_MSC_RDPS_CAPE_Sfc_RLatLon0.09_PT014H.grib2 2026-05-02 20:43 1.6M
20260502T18Z_MSC_RDPS_CIN_Sfc_RLatLon0.09_PT014H.grib2 2026-05-02 20:43 1.1M
20260502T18Z_MSC_RDPS_CloudWater_EAtm_RLatLon0.09_PT014H.grib2 2026-05-02 20:43 218K
20260502T18Z_MSC_RDPS_ConvectivePrecip-Accum_Sfc_RLatLon0.09_PT014H.grib2 2026-05-02 20:43 685K
20260502T18Z_MSC_RDPS_DewPointDepression_AGL-2m_RLatLon0.09_PT014H.grib2 2026-05-02 20:43 398K
20260502T18Z_MSC_RDPS_DewPointDepression_IsbL-0001_RLatLon0.09_PT014H.grib2 2026-05-02 20:43 193
20260502T18Z_MSC_RDPS_DewPointDepression_IsbL-0005_RLatLon0.09_PT014H.grib2 2026-05-02 20:43 193
20260502T18Z_MSC_RDPS_DewPointDepression_IsbL-0010_RLatLon0.09_PT014H.grib2 2026-05-02 20:43 193
20260502T18Z_MSC_RDPS_DewPointDepression_IsbL-0020_RLatLon0.09_PT014H.grib2 2026-05-02 20:43 193
20260502T18Z_MSC_RDPS_DewPointDepression_IsbL-0030_RLatLon0.09_PT014H.grib2 2026-05-02 20:43 193
20260502T18Z_MSC_RDPS_DewPointDepression_IsbL-0050_RLatLon0.09_PT014H.grib2 2026-05-02 20:43 104K
20260502T18Z_MSC_RDPS_DewPointDepression_IsbL-0100_RLatLon0.09_PT014H.grib2 2026-05-02 20:43 119K
20260502T18Z_MSC_RDPS_DewPointDepression_IsbL-0150_RLatLon0.09_PT014H.grib2 2026-05-02 20:43 151K
20260502T18Z_MSC_RDPS_DewPointDepression_IsbL-0175_RLatLon0.09_PT014H.grib2 2026-05-02 20:43 187K
20260502T18Z_MSC_RDPS_DewPointDepression_IsbL-0200_RLatLon0.09_PT014H.grib2 2026-05-02 20:43 222K
20260502T18Z_MSC_RDPS_DewPointDepression_IsbL-0225_RLatLon0.09_PT014H.grib2 2026-05-02 20:43 258K
20260502T18Z_MSC_RDPS_DewPointDepression_IsbL-0250_RLatLon0.09_PT014H.grib2 2026-05-02 20:43 296K
20260502T18Z_MSC_RDPS_DewPointDepression_IsbL-0275_RLatLon0.09_PT014H.grib2 2026-05-02 20:43 307K
20260502T18Z_MSC_RDPS_DewPointDepression_IsbL-0300_RLatLon0.09_PT014H.grib2 2026-05-02 20:43 326K
20260502T18Z_MSC_RDPS_DewPointDepression_IsbL-0350_RLatLon0.09_PT014H.grib2 2026-05-02 20:43 333K
20260502T18Z_MSC_RDPS_DewPointDepression_IsbL-0400_RLatLon0.09_PT014H.grib2 2026-05-02 20:43 339K
20260502T18Z_MSC_RDPS_DewPointDepression_IsbL-0450_RLatLon0.09_PT014H.grib2 2026-05-02 20:43 344K
20260502T18Z_MSC_RDPS_DewPointDepression_IsbL-0500_RLatLon0.09_PT014H.grib2 2026-05-02 20:43 350K
20260502T18Z_MSC_RDPS_DewPointDepression_IsbL-0550_RLatLon0.09_PT014H.grib2 2026-05-02 20:43 360K
20260502T18Z_MSC_RDPS_DewPointDepression_IsbL-0600_RLatLon0.09_PT014H.grib2 2026-05-02 20:43 369K
20260502T18Z_MSC_RDPS_DewPointDepression_IsbL-0650_RLatLon0.09_PT014H.grib2 2026-05-02 20:43 375K
20260502T18Z_MSC_RDPS_DewPointDepression_IsbL-0700_RLatLon0.09_PT014H.grib2 2026-05-02 20:43 386K
20260502T18Z_MSC_RDPS_DewPointDepression_IsbL-0750_RLatLon0.09_PT014H.grib2 2026-05-02 20:43 404K
20260502T18Z_MSC_RDPS_DewPointDepression_IsbL-0800_RLatLon0.09_PT014H.grib2 2026-05-02 20:43 437K
20260502T18Z_MSC_RDPS_DewPointDepression_IsbL-0850_RLatLon0.09_PT014H.grib2 2026-05-02 20:43 468K
20260502T18Z_MSC_RDPS_DewPointDepression_IsbL-0875_RLatLon0.09_PT014H.grib2 2026-05-02 20:43 471K
20260502T18Z_MSC_RDPS_DewPointDepression_IsbL-0900_RLatLon0.09_PT014H.grib2 2026-05-02 20:43 459K
20260502T18Z_MSC_RDPS_DewPointDepression_IsbL-0925_RLatLon0.09_PT014H.grib2 2026-05-02 20:43 444K
20260502T18Z_MSC_RDPS_DewPointDepression_IsbL-0950_RLatLon0.09_PT014H.grib2 2026-05-02 20:43 440K
20260502T18Z_MSC_RDPS_DewPointDepression_IsbL-0970_RLatLon0.09_PT014H.grib2 2026-05-02 20:43 432K
20260502T18Z_MSC_RDPS_DewPointDepression_IsbL-0985_RLatLon0.09_PT014H.grib2 2026-05-02 20:43 427K
20260502T18Z_MSC_RDPS_DewPointDepression_IsbL-1000_RLatLon0.09_PT014H.grib2 2026-05-02 20:43 423K
20260502T18Z_MSC_RDPS_DewPointDepression_IsbL-1015_RLatLon0.09_PT014H.grib2 2026-05-02 20:43 415K
20260502T18Z_MSC_RDPS_DewPoint_AGL-2m_RLatLon0.09_PT014H.grib2 2026-05-02 20:43 306K
20260502T18Z_MSC_RDPS_DownwardLongwaveRadiationFlux-Accum_Sfc_RLatLon0.09_PT014H.grib2 2026-05-02 20:43 498K
20260502T18Z_MSC_RDPS_DownwardShortwaveRadiationFlux-Accum_NTAtm_RLatLon0.09_PT014H.grib2 2026-05-02 20:43 112K
20260502T18Z_MSC_RDPS_DownwardShortwaveRadiationFlux-Accum_Sfc_RLatLon0.09_PT014H.grib2 2026-05-02 20:43 529K
20260502T18Z_MSC_RDPS_FreezingRain-Accum1h_Sfc_RLatLon0.09_PT014H.grib2 2026-05-02 20:43 37K
20260502T18Z_MSC_RDPS_FreezingRain-Accum_Sfc_RLatLon0.09_PT014H.grib2 2026-05-02 20:43 70K
20260502T18Z_MSC_RDPS_GeopotentialHeight_IsbL-0001_RLatLon0.09_PT014H.grib2 2026-05-02 20:43 236K
20260502T18Z_MSC_RDPS_GeopotentialHeight_IsbL-0005_RLatLon0.09_PT014H.grib2 2026-05-02 20:43 333K
20260502T18Z_MSC_RDPS_GeopotentialHeight_IsbL-0010_RLatLon0.09_PT014H.grib2 2026-05-02 20:43 301K
20260502T18Z_MSC_RDPS_GeopotentialHeight_IsbL-0020_RLatLon0.09_PT014H.grib2 2026-05-02 20:43 396K
20260502T18Z_MSC_RDPS_GeopotentialHeight_IsbL-0030_RLatLon0.09_PT014H.grib2 2026-05-02 20:43 399K
20260502T18Z_MSC_RDPS_GeopotentialHeight_IsbL-0050_RLatLon0.09_PT014H.grib2 2026-05-02 20:43 307K
20260502T18Z_MSC_RDPS_GeopotentialHeight_IsbL-0100_RLatLon0.09_PT014H.grib2 2026-05-02 20:43 285K
20260502T18Z_MSC_RDPS_GeopotentialHeight_IsbL-0150_RLatLon0.09_PT014H.grib2 2026-05-02 20:43 230K
20260502T18Z_MSC_RDPS_GeopotentialHeight_IsbL-0175_RLatLon0.09_PT014H.grib2 2026-05-02 20:43 233K
20260502T18Z_MSC_RDPS_GeopotentialHeight_IsbL-0200_RLatLon0.09_PT014H.grib2 2026-05-02 20:43 235K
20260502T18Z_MSC_RDPS_GeopotentialHeight_IsbL-0225_RLatLon0.09_PT014H.grib2 2026-05-02 20:43 265K
20260502T18Z_MSC_RDPS_GeopotentialHeight_IsbL-0250_RLatLon0.09_PT014H.grib2 2026-05-02 20:43 266K
20260502T18Z_MSC_RDPS_GeopotentialHeight_IsbL-0275_RLatLon0.09_PT014H.grib2 2026-05-02 20:43 235K
20260502T18Z_MSC_RDPS_GeopotentialHeight_IsbL-0300_RLatLon0.09_PT014H.grib2 2026-05-02 20:43 235K
20260502T18Z_MSC_RDPS_GeopotentialHeight_IsbL-0350_RLatLon0.09_PT014H.grib2 2026-05-02 20:43 230K
20260502T18Z_MSC_RDPS_GeopotentialHeight_IsbL-0400_RLatLon0.09_PT014H.grib2 2026-05-02 20:43 228K
20260502T18Z_MSC_RDPS_GeopotentialHeight_IsbL-0450_RLatLon0.09_PT014H.grib2 2026-05-02 20:43 297K
20260502T18Z_MSC_RDPS_GeopotentialHeight_IsbL-0500_RLatLon0.09_PT014H.grib2 2026-05-02 20:43 293K
20260502T18Z_MSC_RDPS_GeopotentialHeight_IsbL-0550_RLatLon0.09_PT014H.grib2 2026-05-02 20:43 289K
20260502T18Z_MSC_RDPS_GeopotentialHeight_IsbL-0600_RLatLon0.09_PT014H.grib2 2026-05-02 20:43 284K
20260502T18Z_MSC_RDPS_GeopotentialHeight_IsbL-0650_RLatLon0.09_PT014H.grib2 2026-05-02 20:43 255K
20260502T18Z_MSC_RDPS_GeopotentialHeight_IsbL-0700_RLatLon0.09_PT014H.grib2 2026-05-02 20:43 254K
20260502T18Z_MSC_RDPS_GeopotentialHeight_IsbL-0750_RLatLon0.09_PT014H.grib2 2026-05-02 20:43 257K
20260502T18Z_MSC_RDPS_GeopotentialHeight_IsbL-0800_RLatLon0.09_PT014H.grib2 2026-05-02 20:43 348K
20260502T18Z_MSC_RDPS_GeopotentialHeight_IsbL-0850_RLatLon0.09_PT014H.grib2 2026-05-02 20:43 357K
20260502T18Z_MSC_RDPS_GeopotentialHeight_IsbL-0875_RLatLon0.09_PT014H.grib2 2026-05-02 20:43 359K
20260502T18Z_MSC_RDPS_GeopotentialHeight_IsbL-0900_RLatLon0.09_PT014H.grib2 2026-05-02 20:43 363K
20260502T18Z_MSC_RDPS_GeopotentialHeight_IsbL-0925_RLatLon0.09_PT014H.grib2 2026-05-02 20:43 366K
20260502T18Z_MSC_RDPS_GeopotentialHeight_IsbL-0950_RLatLon0.09_PT014H.grib2 2026-05-02 20:43 369K
20260502T18Z_MSC_RDPS_GeopotentialHeight_IsbL-0970_RLatLon0.09_PT014H.grib2 2026-05-02 20:43 373K
20260502T18Z_MSC_RDPS_GeopotentialHeight_IsbL-0985_RLatLon0.09_PT014H.grib2 2026-05-02 20:43 381K
20260502T18Z_MSC_RDPS_GeopotentialHeight_IsbL-1000_RLatLon0.09_PT014H.grib2 2026-05-02 20:43 392K
20260502T18Z_MSC_RDPS_GeopotentialHeight_IsbL-1015_RLatLon0.09_PT014H.grib2 2026-05-02 20:43 408K
20260502T18Z_MSC_RDPS_Humidex_Sfc_RLatLon0.09_PT014H.grib2 2026-05-02 20:43 2.4M
20260502T18Z_MSC_RDPS_IcePellets-Accum1h_Sfc_RLatLon0.09_PT014H.grib2 2026-05-02 20:43 3.0K
20260502T18Z_MSC_RDPS_IcePellets-Accum_Sfc_RLatLon0.09_PT014H.grib2 2026-05-02 20:43 11K
20260502T18Z_MSC_RDPS_KIndex_Sfc_RLatLon0.09_PT014H.grib2 2026-05-02 20:43 2.4M
20260502T18Z_MSC_RDPS_LatentHeatNetFlux_Sfc_RLatLon0.09_PT014H.grib2 2026-05-02 20:43 406K
20260502T18Z_MSC_RDPS_LiftedIndex-MU-VT_IsbL-0500_RLatLon0.09_PT014H.grib2 2026-05-02 20:43 2.4M
20260502T18Z_MSC_RDPS_NetLongwaveRadiationFlux-Accum_Sfc_RLatLon0.09_PT014H.grib2 2026-05-02 20:43 505K
20260502T18Z_MSC_RDPS_NetShortwaveRadiationFlux-Accum_Sfc_RLatLon0.09_PT014H.grib2 2026-05-02 20:43 519K
20260502T18Z_MSC_RDPS_PlanetaryBoundaryLayerHeight_Sfc_RLatLon0.09_PT014H.grib2 2026-05-02 20:43 1.1M
20260502T18Z_MSC_RDPS_Precip-Accum1h_Sfc_RLatLon0.09_PT014H.grib2 2026-05-02 20:43 1.2M
20260502T18Z_MSC_RDPS_Precip-Accum_Sfc_RLatLon0.09_PT014H.grib2 2026-05-02 20:43 1.6M
20260502T18Z_MSC_RDPS_PrecipRate_Sfc_RLatLon0.09_PT014H.grib2 2026-05-02 20:43 179K
20260502T18Z_MSC_RDPS_PrecipType-Instant_Sfc_RLatLon0.09_PT014H.grib2 2026-05-02 20:43 589K
20260502T18Z_MSC_RDPS_Pressure-Trend3h_Sfc_RLatLon0.09_PT014H.grib2 2026-05-02 20:43 1.2M
20260502T18Z_MSC_RDPS_Pressure_MSL_RLatLon0.09_PT014H.grib2 2026-05-02 20:43 324K
20260502T18Z_MSC_RDPS_Pressure_PVU-1.5_RLatLon0.09_PT014H.grib2 2026-05-02 20:43 2.5M
20260502T18Z_MSC_RDPS_Pressure_PVU-1_RLatLon0.09_PT014H.grib2 2026-05-02 20:43 2.4M
20260502T18Z_MSC_RDPS_Pressure_PVU-2_RLatLon0.09_PT014H.grib2 2026-05-02 20:43 2.4M
20260502T18Z_MSC_RDPS_Pressure_Sfc_RLatLon0.09_PT014H.grib2 2026-05-02 20:43 500K
20260502T18Z_MSC_RDPS_RadiativeTemp_Sfc_RLatLon0.09_PT014H.grib2 2026-05-02 20:43 304K
20260502T18Z_MSC_RDPS_Rain-Accum1h_Sfc_RLatLon0.09_PT014H.grib2 2026-05-02 20:43 616K
20260502T18Z_MSC_RDPS_Rain-Accum_Sfc_RLatLon0.09_PT014H.grib2 2026-05-02 20:43 1.2M
20260502T18Z_MSC_RDPS_RelativeHumidity_AGL-2m_RLatLon0.09_PT014H.grib2 2026-05-02 20:43 1.0M
20260502T18Z_MSC_RDPS_RelativeHumidity_IsbL-0010_RLatLon0.09_PT014H.grib2 2026-05-02 20:43 633K
20260502T18Z_MSC_RDPS_RelativeHumidity_IsbL-0020_RLatLon0.09_PT014H.grib2 2026-05-02 20:43 675K
20260502T18Z_MSC_RDPS_RelativeHumidity_IsbL-0030_RLatLon0.09_PT014H.grib2 2026-05-02 20:43 600K
20260502T18Z_MSC_RDPS_RelativeHumidity_IsbL-0050_RLatLon0.09_PT014H.grib2 2026-05-02 20:43 358K
20260502T18Z_MSC_RDPS_RelativeHumidity_IsbL-0100_RLatLon0.09_PT014H.grib2 2026-05-02 20:43 278K
20260502T18Z_MSC_RDPS_RelativeHumidity_IsbL-0150_RLatLon0.09_PT014H.grib2 2026-05-02 20:43 417K
20260502T18Z_MSC_RDPS_RelativeHumidity_IsbL-0175_RLatLon0.09_PT014H.grib2 2026-05-02 20:43 479K
20260502T18Z_MSC_RDPS_RelativeHumidity_IsbL-0200_RLatLon0.09_PT014H.grib2 2026-05-02 20:43 554K
20260502T18Z_MSC_RDPS_RelativeHumidity_IsbL-0225_RLatLon0.09_PT014H.grib2 2026-05-02 20:43 616K
20260502T18Z_MSC_RDPS_RelativeHumidity_IsbL-0250_RLatLon0.09_PT014H.grib2 2026-05-02 20:43 682K
20260502T18Z_MSC_RDPS_RelativeHumidity_IsbL-0275_RLatLon0.09_PT014H.grib2 2026-05-02 20:43 706K
20260502T18Z_MSC_RDPS_RelativeHumidity_IsbL-0300_RLatLon0.09_PT014H.grib2 2026-05-02 20:43 746K
20260502T18Z_MSC_RDPS_RelativeHumidity_IsbL-0350_RLatLon0.09_PT014H.grib2 2026-05-02 20:43 774K
20260502T18Z_MSC_RDPS_RelativeHumidity_IsbL-0400_RLatLon0.09_PT014H.grib2 2026-05-02 20:43 784K
20260502T18Z_MSC_RDPS_RelativeHumidity_IsbL-0450_RLatLon0.09_PT014H.grib2 2026-05-02 20:43 789K
20260502T18Z_MSC_RDPS_RelativeHumidity_IsbL-0500_RLatLon0.09_PT014H.grib2 2026-05-02 20:43 807K
20260502T18Z_MSC_RDPS_RelativeHumidity_IsbL-0550_RLatLon0.09_PT014H.grib2 2026-05-02 20:43 815K
20260502T18Z_MSC_RDPS_RelativeHumidity_IsbL-0600_RLatLon0.09_PT014H.grib2 2026-05-02 20:43 833K
20260502T18Z_MSC_RDPS_RelativeHumidity_IsbL-0650_RLatLon0.09_PT014H.grib2 2026-05-02 20:43 846K
20260502T18Z_MSC_RDPS_RelativeHumidity_IsbL-0700_RLatLon0.09_PT014H.grib2 2026-05-02 20:43 871K
20260502T18Z_MSC_RDPS_RelativeHumidity_IsbL-0750_RLatLon0.09_PT014H.grib2 2026-05-02 20:43 920K
20260502T18Z_MSC_RDPS_RelativeHumidity_IsbL-0800_RLatLon0.09_PT014H.grib2 2026-05-02 20:43 1.0M
20260502T18Z_MSC_RDPS_RelativeHumidity_IsbL-0850_RLatLon0.09_PT014H.grib2 2026-05-02 20:43 1.0M
20260502T18Z_MSC_RDPS_RelativeHumidity_IsbL-0875_RLatLon0.09_PT014H.grib2 2026-05-02 20:43 1.1M
20260502T18Z_MSC_RDPS_RelativeHumidity_IsbL-0900_RLatLon0.09_PT014H.grib2 2026-05-02 20:43 1.1M
20260502T18Z_MSC_RDPS_RelativeHumidity_IsbL-0925_RLatLon0.09_PT014H.grib2 2026-05-02 20:43 1.1M
20260502T18Z_MSC_RDPS_RelativeHumidity_IsbL-0950_RLatLon0.09_PT014H.grib2 2026-05-02 20:43 1.1M
20260502T18Z_MSC_RDPS_RelativeHumidity_IsbL-0970_RLatLon0.09_PT014H.grib2 2026-05-02 20:43 1.0M
20260502T18Z_MSC_RDPS_RelativeHumidity_IsbL-0985_RLatLon0.09_PT014H.grib2 2026-05-02 20:43 1.0M
20260502T18Z_MSC_RDPS_RelativeHumidity_IsbL-1000_RLatLon0.09_PT014H.grib2 2026-05-02 20:43 1.0M
20260502T18Z_MSC_RDPS_RelativeHumidity_IsbL-1015_RLatLon0.09_PT014H.grib2 2026-05-02 20:43 1.0M
20260502T18Z_MSC_RDPS_Runoff-Accum_Sfc_RLatLon0.09_PT014H.grib2 2026-05-02 20:43 59K
20260502T18Z_MSC_RDPS_SWEATIndex_Sfc_RLatLon0.09_PT014H.grib2 2026-05-02 20:43 2.4M
20260502T18Z_MSC_RDPS_SeeingIndex_EAtm_RLatLon0.09_PT014H.grib2 2026-05-02 20:43 1.0M
20260502T18Z_MSC_RDPS_SensibleHeatNetFlux_Sfc_RLatLon0.09_PT014H.grib2 2026-05-02 20:43 294K
20260502T18Z_MSC_RDPS_ShowalterIndex_IsbL-0500_RLatLon0.09_PT014H.grib2 2026-05-02 20:43 2.6M
20260502T18Z_MSC_RDPS_SkyTransparencyIndex_EAtm_RLatLon0.09_PT014H.grib2 2026-05-02 20:43 691K
20260502T18Z_MSC_RDPS_Snow-Accum1h_Sfc_RLatLon0.09_PT014H.grib2 2026-05-02 20:43 477K
20260502T18Z_MSC_RDPS_Snow-Accum_Sfc_RLatLon0.09_PT014H.grib2 2026-05-02 20:43 617K
20260502T18Z_MSC_RDPS_SnowDensity_Sfc_RLatLon0.09_PT014H.grib2 2026-05-02 20:43 167K
20260502T18Z_MSC_RDPS_SnowDepth_Sfc_RLatLon0.09_PT014H.grib2 2026-05-02 20:43 651K
20260502T18Z_MSC_RDPS_SoilTemp_DBS-0to10cm_RLatLon0.09_PT014H.grib2 2026-05-02 20:43 216K
20260502T18Z_MSC_RDPS_SoilTemp_Sfc_RLatLon0.09_PT014H.grib2 2026-05-02 20:43 284K
20260502T18Z_MSC_RDPS_SoilVolumetricIceContent_Sfc_RLatLon0.09_PT014H.grib2 2026-05-02 20:43 158K
20260502T18Z_MSC_RDPS_SoilVolumetricWaterContent_DBS-0to10cm_RLatLon0.09_PT014H.grib2 2026-05-02 20:43 273K
20260502T18Z_MSC_RDPS_SoilVolumetricWaterContent_DBS-0to1cm_RLatLon0.09_PT014H.grib2 2026-05-02 20:43 339K
20260502T18Z_MSC_RDPS_SpecificHumidity_AGL-120m_RLatLon0.09_PT014H.grib2 2026-05-02 20:43 487K
20260502T18Z_MSC_RDPS_SpecificHumidity_AGL-2m_RLatLon0.09_PT014H.grib2 2026-05-02 20:43 650K
20260502T18Z_MSC_RDPS_SpecificHumidity_AGL-40m_RLatLon0.09_PT014H.grib2 2026-05-02 20:43 492K
20260502T18Z_MSC_RDPS_SpecificHumidity_AGL-80m_RLatLon0.09_PT014H.grib2 2026-05-02 20:43 488K
20260502T18Z_MSC_RDPS_SpecificHumidity_IsbL-0001_RLatLon0.09_PT014H.grib2 2026-05-02 20:43 348K
20260502T18Z_MSC_RDPS_SpecificHumidity_IsbL-0005_RLatLon0.09_PT014H.grib2 2026-05-02 20:43 364K
20260502T18Z_MSC_RDPS_SpecificHumidity_IsbL-0010_RLatLon0.09_PT014H.grib2 2026-05-02 20:43 396K
20260502T18Z_MSC_RDPS_SpecificHumidity_IsbL-0020_RLatLon0.09_PT014H.grib2 2026-05-02 20:43 379K
20260502T18Z_MSC_RDPS_SpecificHumidity_IsbL-0030_RLatLon0.09_PT014H.grib2 2026-05-02 20:43 371K
20260502T18Z_MSC_RDPS_SpecificHumidity_IsbL-0050_RLatLon0.09_PT014H.grib2 2026-05-02 20:43 487K
20260502T18Z_MSC_RDPS_SpecificHumidity_IsbL-0100_RLatLon0.09_PT014H.grib2 2026-05-02 20:43 421K
20260502T18Z_MSC_RDPS_SpecificHumidity_IsbL-0150_RLatLon0.09_PT014H.grib2 2026-05-02 20:43 457K
20260502T18Z_MSC_RDPS_SpecificHumidity_IsbL-0175_RLatLon0.09_PT014H.grib2 2026-05-02 20:43 544K
20260502T18Z_MSC_RDPS_SpecificHumidity_IsbL-0200_RLatLon0.09_PT014H.grib2 2026-05-02 20:43 457K
20260502T18Z_MSC_RDPS_SpecificHumidity_IsbL-0225_RLatLon0.09_PT014H.grib2 2026-05-02 20:43 455K
20260502T18Z_MSC_RDPS_SpecificHumidity_IsbL-0250_RLatLon0.09_PT014H.grib2 2026-05-02 20:43 515K
20260502T18Z_MSC_RDPS_SpecificHumidity_IsbL-0275_RLatLon0.09_PT014H.grib2 2026-05-02 20:43 474K
20260502T18Z_MSC_RDPS_SpecificHumidity_IsbL-0300_RLatLon0.09_PT014H.grib2 2026-05-02 20:43 446K
20260502T18Z_MSC_RDPS_SpecificHumidity_IsbL-0350_RLatLon0.09_PT014H.grib2 2026-05-02 20:43 569K
20260502T18Z_MSC_RDPS_SpecificHumidity_IsbL-0400_RLatLon0.09_PT014H.grib2 2026-05-02 20:43 520K
20260502T18Z_MSC_RDPS_SpecificHumidity_IsbL-0450_RLatLon0.09_PT014H.grib2 2026-05-02 20:43 570K
20260502T18Z_MSC_RDPS_SpecificHumidity_IsbL-0500_RLatLon0.09_PT014H.grib2 2026-05-02 20:43 505K
20260502T18Z_MSC_RDPS_SpecificHumidity_IsbL-0550_RLatLon0.09_PT014H.grib2 2026-05-02 20:43 578K
20260502T18Z_MSC_RDPS_SpecificHumidity_IsbL-0600_RLatLon0.09_PT014H.grib2 2026-05-02 20:43 628K
20260502T18Z_MSC_RDPS_SpecificHumidity_IsbL-0650_RLatLon0.09_PT014H.grib2 2026-05-02 20:43 545K
20260502T18Z_MSC_RDPS_SpecificHumidity_IsbL-0700_RLatLon0.09_PT014H.grib2 2026-05-02 20:43 587K
20260502T18Z_MSC_RDPS_SpecificHumidity_IsbL-0750_RLatLon0.09_PT014H.grib2 2026-05-02 20:43 641K
20260502T18Z_MSC_RDPS_SpecificHumidity_IsbL-0800_RLatLon0.09_PT014H.grib2 2026-05-02 20:43 711K
20260502T18Z_MSC_RDPS_SpecificHumidity_IsbL-0850_RLatLon0.09_PT014H.grib2 2026-05-02 20:43 797K
20260502T18Z_MSC_RDPS_SpecificHumidity_IsbL-0875_RLatLon0.09_PT014H.grib2 2026-05-02 20:43 825K
20260502T18Z_MSC_RDPS_SpecificHumidity_IsbL-0900_RLatLon0.09_PT014H.grib2 2026-05-02 20:43 838K
20260502T18Z_MSC_RDPS_SpecificHumidity_IsbL-0925_RLatLon0.09_PT014H.grib2 2026-05-02 20:43 834K
20260502T18Z_MSC_RDPS_SpecificHumidity_IsbL-0950_RLatLon0.09_PT014H.grib2 2026-05-02 20:43 837K
20260502T18Z_MSC_RDPS_SpecificHumidity_IsbL-0970_RLatLon0.09_PT014H.grib2 2026-05-02 20:43 688K
20260502T18Z_MSC_RDPS_SpecificHumidity_IsbL-0985_RLatLon0.09_PT014H.grib2 2026-05-02 20:43 681K
20260502T18Z_MSC_RDPS_SpecificHumidity_IsbL-1000_RLatLon0.09_PT014H.grib2 2026-05-02 20:43 674K
20260502T18Z_MSC_RDPS_SpecificHumidity_IsbL-1015_RLatLon0.09_PT014H.grib2 2026-05-02 20:43 663K
20260502T18Z_MSC_RDPS_SpecificHumidity_Sfc_RLatLon0.09_PT014H.grib2 2026-05-02 20:43 292K
20260502T18Z_MSC_RDPS_StormRelativeHelicity_EtaL-10000_RLatLon0.09_PT014H.grib2 2026-05-02 20:43 1.1M
20260502T18Z_MSC_RDPS_StormSeverityIndex_EtaL-10000_RLatLon0.09_PT014H.grib2 2026-05-02 20:43 1.2M
20260502T18Z_MSC_RDPS_Thickness_IsbL-0850to0700_RLatLon0.09_PT014H.grib2 2026-05-02 20:43 177K
20260502T18Z_MSC_RDPS_Thickness_IsbL-1000to0500_RLatLon0.09_PT014H.grib2 2026-05-02 20:43 194K
20260502T18Z_MSC_RDPS_Thickness_IsbL-1000to0850_RLatLon0.09_PT014H.grib2 2026-05-02 20:43 259K
20260502T18Z_MSC_RDPS_TotalCloudCover_Sfc_RLatLon0.09_PT014H.grib2 2026-05-02 20:43 661K
20260502T18Z_MSC_RDPS_TotalTotalsIndex_Sfc_RLatLon0.09_PT014H.grib2 2026-05-02 20:43 2.3M
20260502T18Z_MSC_RDPS_UVIndex-ClearSky_Sfc_RLatLon0.09_PT014H.grib2 2026-05-02 20:43 101K
20260502T18Z_MSC_RDPS_UVIndex_Sfc_RLatLon0.09_PT014H.grib2 2026-05-02 20:43 175K
20260502T18Z_MSC_RDPS_UpwardLongwaveRadiationFlux_NTAtm_RLatLon0.09_PT014H.grib2 2026-05-02 20:43 490K
20260502T18Z_MSC_RDPS_UpwardShortwaveRadiationFlux_NTAtm_RLatLon0.09_PT014H.grib2 2026-05-02 20:43 147K
20260502T18Z_MSC_RDPS_VerticalVelocity_IsbL-0250_RLatLon0.09_PT014H.grib2 2026-05-02 20:43 556K
20260502T18Z_MSC_RDPS_VerticalVelocity_IsbL-0500_RLatLon0.09_PT014H.grib2 2026-05-02 20:43 540K
20260502T18Z_MSC_RDPS_VerticalVelocity_IsbL-0700_RLatLon0.09_PT014H.grib2 2026-05-02 20:43 590K
20260502T18Z_MSC_RDPS_VerticalVelocity_IsbL-0850_RLatLon0.09_PT014H.grib2 2026-05-02 20:43 699K
20260502T18Z_MSC_RDPS_VerticalWindShear_EtaL-6500_RLatLon0.09_PT014H.grib2 2026-05-02 20:43 1.2M
20260502T18Z_MSC_RDPS_WindChill_Sfc_RLatLon0.09_PT014H.grib2 2026-05-02 20:43 1.2M
20260502T18Z_MSC_RDPS_WindDir_AGL-10m_RLatLon0.09_PT014H.grib2 2026-05-02 20:43 970K
20260502T18Z_MSC_RDPS_WindDir_AGL-120m_RLatLon0.09_PT014H.grib2 2026-05-02 20:43 601K
20260502T18Z_MSC_RDPS_WindDir_AGL-40m_RLatLon0.09_PT014H.grib2 2026-05-02 20:43 635K
20260502T18Z_MSC_RDPS_WindDir_AGL-80m_RLatLon0.09_PT014H.grib2 2026-05-02 20:43 614K
20260502T18Z_MSC_RDPS_WindDir_IsbL-0001_RLatLon0.09_PT014H.grib2 2026-05-02 20:43 310K
20260502T18Z_MSC_RDPS_WindDir_IsbL-0005_RLatLon0.09_PT014H.grib2 2026-05-02 20:43 385K
20260502T18Z_MSC_RDPS_WindDir_IsbL-0010_RLatLon0.09_PT014H.grib2 2026-05-02 20:43 386K
20260502T18Z_MSC_RDPS_WindDir_IsbL-0020_RLatLon0.09_PT014H.grib2 2026-05-02 20:43 419K
20260502T18Z_MSC_RDPS_WindDir_IsbL-0030_RLatLon0.09_PT014H.grib2 2026-05-02 20:43 415K
20260502T18Z_MSC_RDPS_WindDir_IsbL-0050_RLatLon0.09_PT014H.grib2 2026-05-02 20:43 412K
20260502T18Z_MSC_RDPS_WindDir_IsbL-0100_RLatLon0.09_PT014H.grib2 2026-05-02 20:43 406K
20260502T18Z_MSC_RDPS_WindDir_IsbL-0150_RLatLon0.09_PT014H.grib2 2026-05-02 20:43 417K
20260502T18Z_MSC_RDPS_WindDir_IsbL-0175_RLatLon0.09_PT014H.grib2 2026-05-02 20:43 424K
20260502T18Z_MSC_RDPS_WindDir_IsbL-0200_RLatLon0.09_PT014H.grib2 2026-05-02 20:43 442K
20260502T18Z_MSC_RDPS_WindDir_IsbL-0225_RLatLon0.09_PT014H.grib2 2026-05-02 20:43 451K
20260502T18Z_MSC_RDPS_WindDir_IsbL-0250_RLatLon0.09_PT014H.grib2 2026-05-02 20:43 453K
20260502T18Z_MSC_RDPS_WindDir_IsbL-0275_RLatLon0.09_PT014H.grib2 2026-05-02 20:43 476K
20260502T18Z_MSC_RDPS_WindDir_IsbL-0300_RLatLon0.09_PT014H.grib2 2026-05-02 20:43 478K
20260502T18Z_MSC_RDPS_WindDir_IsbL-0350_RLatLon0.09_PT014H.grib2 2026-05-02 20:43 505K
20260502T18Z_MSC_RDPS_WindDir_IsbL-0400_RLatLon0.09_PT014H.grib2 2026-05-02 20:43 522K
20260502T18Z_MSC_RDPS_WindDir_IsbL-0450_RLatLon0.09_PT014H.grib2 2026-05-02 20:43 532K
20260502T18Z_MSC_RDPS_WindDir_IsbL-0500_RLatLon0.09_PT014H.grib2 2026-05-02 20:43 541K
20260502T18Z_MSC_RDPS_WindDir_IsbL-0550_RLatLon0.09_PT014H.grib2 2026-05-02 20:43 553K
20260502T18Z_MSC_RDPS_WindDir_IsbL-0600_RLatLon0.09_PT014H.grib2 2026-05-02 20:43 576K
20260502T18Z_MSC_RDPS_WindDir_IsbL-0650_RLatLon0.09_PT014H.grib2 2026-05-02 20:43 611K
20260502T18Z_MSC_RDPS_WindDir_IsbL-0700_RLatLon0.09_PT014H.grib2 2026-05-02 20:43 658K
20260502T18Z_MSC_RDPS_WindDir_IsbL-0750_RLatLon0.09_PT014H.grib2 2026-05-02 20:43 701K
20260502T18Z_MSC_RDPS_WindDir_IsbL-0800_RLatLon0.09_PT014H.grib2 2026-05-02 20:43 770K
20260502T18Z_MSC_RDPS_WindDir_IsbL-0850_RLatLon0.09_PT014H.grib2 2026-05-02 20:43 859K
20260502T18Z_MSC_RDPS_WindDir_IsbL-0875_RLatLon0.09_PT014H.grib2 2026-05-02 20:43 890K
20260502T18Z_MSC_RDPS_WindDir_IsbL-0900_RLatLon0.09_PT014H.grib2 2026-05-02 20:43 906K
20260502T18Z_MSC_RDPS_WindDir_IsbL-0925_RLatLon0.09_PT014H.grib2 2026-05-02 20:43 919K
20260502T18Z_MSC_RDPS_WindDir_IsbL-0950_RLatLon0.09_PT014H.grib2 2026-05-02 20:43 916K
20260502T18Z_MSC_RDPS_WindDir_IsbL-0970_RLatLon0.09_PT014H.grib2 2026-05-02 20:43 922K
20260502T18Z_MSC_RDPS_WindDir_IsbL-0985_RLatLon0.09_PT014H.grib2 2026-05-02 20:43 930K
20260502T18Z_MSC_RDPS_WindDir_IsbL-1000_RLatLon0.09_PT014H.grib2 2026-05-02 20:43 943K
20260502T18Z_MSC_RDPS_WindDir_IsbL-1015_RLatLon0.09_PT014H.grib2 2026-05-02 20:43 960K
20260502T18Z_MSC_RDPS_WindGust-Max_AGL-10m_RLatLon0.09_PT014H.grib2 2026-05-02 20:43 1.0M
20260502T18Z_MSC_RDPS_WindGust-Min_AGL-10m_RLatLon0.09_PT014H.grib2 2026-05-02 20:43 971K
20260502T18Z_MSC_RDPS_WindGust_AGL-10m_RLatLon0.09_PT014H.grib2 2026-05-02 20:43 1.0M
20260502T18Z_MSC_RDPS_WindSpeed_AGL-10m_RLatLon0.09_PT014H.grib2 2026-05-02 20:43 840K
20260502T18Z_MSC_RDPS_WindSpeed_AGL-120m_RLatLon0.09_PT014H.grib2 2026-05-02 20:43 541K
20260502T18Z_MSC_RDPS_WindSpeed_AGL-40m_RLatLon0.09_PT014H.grib2 2026-05-02 20:43 542K
20260502T18Z_MSC_RDPS_WindSpeed_AGL-80m_RLatLon0.09_PT014H.grib2 2026-05-02 20:43 541K
20260502T18Z_MSC_RDPS_WindSpeed_IsbL-0001_RLatLon0.09_PT014H.grib2 2026-05-02 20:43 324K
20260502T18Z_MSC_RDPS_WindSpeed_IsbL-0005_RLatLon0.09_PT014H.grib2 2026-05-02 20:43 376K
20260502T18Z_MSC_RDPS_WindSpeed_IsbL-0010_RLatLon0.09_PT014H.grib2 2026-05-02 20:43 354K
20260502T18Z_MSC_RDPS_WindSpeed_IsbL-0020_RLatLon0.09_PT014H.grib2 2026-05-02 20:43 409K
20260502T18Z_MSC_RDPS_WindSpeed_IsbL-0030_RLatLon0.09_PT014H.grib2 2026-05-02 20:43 316K
20260502T18Z_MSC_RDPS_WindSpeed_IsbL-0050_RLatLon0.09_PT014H.grib2 2026-05-02 20:43 347K
20260502T18Z_MSC_RDPS_WindSpeed_IsbL-0100_RLatLon0.09_PT014H.grib2 2026-05-02 20:43 475K
20260502T18Z_MSC_RDPS_WindSpeed_IsbL-0150_RLatLon0.09_PT014H.grib2 2026-05-02 20:43 410K
20260502T18Z_MSC_RDPS_WindSpeed_IsbL-0175_RLatLon0.09_PT014H.grib2 2026-05-02 20:43 427K
20260502T18Z_MSC_RDPS_WindSpeed_IsbL-0200_RLatLon0.09_PT014H.grib2 2026-05-02 20:43 442K
20260502T18Z_MSC_RDPS_WindSpeed_IsbL-0225_RLatLon0.09_PT014H.grib2 2026-05-02 20:43 450K
20260502T18Z_MSC_RDPS_WindSpeed_IsbL-0250_RLatLon0.09_PT014H.grib2 2026-05-02 20:43 455K
20260502T18Z_MSC_RDPS_WindSpeed_IsbL-0275_RLatLon0.09_PT014H.grib2 2026-05-02 20:43 472K
20260502T18Z_MSC_RDPS_WindSpeed_IsbL-0300_RLatLon0.09_PT014H.grib2 2026-05-02 20:43 468K
20260502T18Z_MSC_RDPS_WindSpeed_IsbL-0350_RLatLon0.09_PT014H.grib2 2026-05-02 20:43 477K
20260502T18Z_MSC_RDPS_WindSpeed_IsbL-0400_RLatLon0.09_PT014H.grib2 2026-05-02 20:43 481K
20260502T18Z_MSC_RDPS_WindSpeed_IsbL-0450_RLatLon0.09_PT014H.grib2 2026-05-02 20:43 465K
20260502T18Z_MSC_RDPS_WindSpeed_IsbL-0500_RLatLon0.09_PT014H.grib2 2026-05-02 20:43 465K
20260502T18Z_MSC_RDPS_WindSpeed_IsbL-0550_RLatLon0.09_PT014H.grib2 2026-05-02 20:43 468K
20260502T18Z_MSC_RDPS_WindSpeed_IsbL-0600_RLatLon0.09_PT014H.grib2 2026-05-02 20:43 594K
20260502T18Z_MSC_RDPS_WindSpeed_IsbL-0650_RLatLon0.09_PT014H.grib2 2026-05-02 20:43 612K
20260502T18Z_MSC_RDPS_WindSpeed_IsbL-0700_RLatLon0.09_PT014H.grib2 2026-05-02 20:43 681K
20260502T18Z_MSC_RDPS_WindSpeed_IsbL-0750_RLatLon0.09_PT014H.grib2 2026-05-02 20:43 712K
20260502T18Z_MSC_RDPS_WindSpeed_IsbL-0800_RLatLon0.09_PT014H.grib2 2026-05-02 20:43 760K
20260502T18Z_MSC_RDPS_WindSpeed_IsbL-0850_RLatLon0.09_PT014H.grib2 2026-05-02 20:43 820K
20260502T18Z_MSC_RDPS_WindSpeed_IsbL-0875_RLatLon0.09_PT014H.grib2 2026-05-02 20:43 842K
20260502T18Z_MSC_RDPS_WindSpeed_IsbL-0900_RLatLon0.09_PT014H.grib2 2026-05-02 20:43 854K
20260502T18Z_MSC_RDPS_WindSpeed_IsbL-0925_RLatLon0.09_PT014H.grib2 2026-05-02 20:43 864K
20260502T18Z_MSC_RDPS_WindSpeed_IsbL-0950_RLatLon0.09_PT014H.grib2 2026-05-02 20:43 864K
20260502T18Z_MSC_RDPS_WindSpeed_IsbL-0970_RLatLon0.09_PT014H.grib2 2026-05-02 20:43 865K
20260502T18Z_MSC_RDPS_WindSpeed_IsbL-0985_RLatLon0.09_PT014H.grib2 2026-05-02 20:43 857K
20260502T18Z_MSC_RDPS_WindSpeed_IsbL-1000_RLatLon0.09_PT014H.grib2 2026-05-02 20:43 849K
20260502T18Z_MSC_RDPS_WindSpeed_IsbL-1015_RLatLon0.09_PT014H.grib2 2026-05-02 20:43 839K
20260502T18Z_MSC_RDPS_WindU_AGL-10m_RLatLon0.09_PT014H.grib2 2026-05-02 20:43 430K
20260502T18Z_MSC_RDPS_WindU_AGL-120m_RLatLon0.09_PT014H.grib2 2026-05-02 20:43 419K
20260502T18Z_MSC_RDPS_WindU_AGL-40m_RLatLon0.09_PT014H.grib2 2026-05-02 20:43 538K
20260502T18Z_MSC_RDPS_WindU_AGL-80m_RLatLon0.09_PT014H.grib2 2026-05-02 20:43 537K
20260502T18Z_MSC_RDPS_WindU_IsbL-0001_RLatLon0.09_PT014H.grib2 2026-05-02 20:43 237K
20260502T18Z_MSC_RDPS_WindU_IsbL-0005_RLatLon0.09_PT014H.grib2 2026-05-02 20:43 277K
20260502T18Z_MSC_RDPS_WindU_IsbL-0010_RLatLon0.09_PT014H.grib2 2026-05-02 20:43 288K
20260502T18Z_MSC_RDPS_WindU_IsbL-0020_RLatLon0.09_PT014H.grib2 2026-05-02 20:43 305K
20260502T18Z_MSC_RDPS_WindU_IsbL-0030_RLatLon0.09_PT014H.grib2 2026-05-02 20:43 348K
20260502T18Z_MSC_RDPS_WindU_IsbL-0050_RLatLon0.09_PT014H.grib2 2026-05-02 20:43 375K
20260502T18Z_MSC_RDPS_WindU_IsbL-0100_RLatLon0.09_PT014H.grib2 2026-05-02 20:43 334K
20260502T18Z_MSC_RDPS_WindU_IsbL-0150_RLatLon0.09_PT014H.grib2 2026-05-02 20:43 401K
20260502T18Z_MSC_RDPS_WindU_IsbL-0175_RLatLon0.09_PT014H.grib2 2026-05-02 20:43 419K
20260502T18Z_MSC_RDPS_WindU_IsbL-0200_RLatLon0.09_PT014H.grib2 2026-05-02 20:43 337K
20260502T18Z_MSC_RDPS_WindU_IsbL-0225_RLatLon0.09_PT014H.grib2 2026-05-02 20:43 344K
20260502T18Z_MSC_RDPS_WindU_IsbL-0250_RLatLon0.09_PT014H.grib2 2026-05-02 20:43 345K
20260502T18Z_MSC_RDPS_WindU_IsbL-0275_RLatLon0.09_PT014H.grib2 2026-05-02 20:43 360K
20260502T18Z_MSC_RDPS_WindU_IsbL-0300_RLatLon0.09_PT014H.grib2 2026-05-02 20:43 355K
20260502T18Z_MSC_RDPS_WindU_IsbL-0350_RLatLon0.09_PT014H.grib2 2026-05-02 20:43 363K
20260502T18Z_MSC_RDPS_WindU_IsbL-0400_RLatLon0.09_PT014H.grib2 2026-05-02 20:43 469K
20260502T18Z_MSC_RDPS_WindU_IsbL-0450_RLatLon0.09_PT014H.grib2 2026-05-02 20:43 470K
20260502T18Z_MSC_RDPS_WindU_IsbL-0500_RLatLon0.09_PT014H.grib2 2026-05-02 20:43 471K
20260502T18Z_MSC_RDPS_WindU_IsbL-0550_RLatLon0.09_PT014H.grib2 2026-05-02 20:43 474K
20260502T18Z_MSC_RDPS_WindU_IsbL-0600_RLatLon0.09_PT014H.grib2 2026-05-02 20:43 482K
20260502T18Z_MSC_RDPS_WindU_IsbL-0650_RLatLon0.09_PT014H.grib2 2026-05-02 20:43 482K
20260502T18Z_MSC_RDPS_WindU_IsbL-0700_RLatLon0.09_PT014H.grib2 2026-05-02 20:43 505K
20260502T18Z_MSC_RDPS_WindU_IsbL-0750_RLatLon0.09_PT014H.grib2 2026-05-02 20:43 531K
20260502T18Z_MSC_RDPS_WindU_IsbL-0800_RLatLon0.09_PT014H.grib2 2026-05-02 20:43 573K
20260502T18Z_MSC_RDPS_WindU_IsbL-0850_RLatLon0.09_PT014H.grib2 2026-05-02 20:43 627K
20260502T18Z_MSC_RDPS_WindU_IsbL-0875_RLatLon0.09_PT014H.grib2 2026-05-02 20:43 646K
20260502T18Z_MSC_RDPS_WindU_IsbL-0900_RLatLon0.09_PT014H.grib2 2026-05-02 20:43 655K
20260502T18Z_MSC_RDPS_WindU_IsbL-0925_RLatLon0.09_PT014H.grib2 2026-05-02 20:43 664K
20260502T18Z_MSC_RDPS_WindU_IsbL-0950_RLatLon0.09_PT014H.grib2 2026-05-02 20:43 660K
20260502T18Z_MSC_RDPS_WindU_IsbL-0970_RLatLon0.09_PT014H.grib2 2026-05-02 20:43 658K
20260502T18Z_MSC_RDPS_WindU_IsbL-0985_RLatLon0.09_PT014H.grib2 2026-05-02 20:43 652K
20260502T18Z_MSC_RDPS_WindU_IsbL-1000_RLatLon0.09_PT014H.grib2 2026-05-02 20:43 786K
20260502T18Z_MSC_RDPS_WindU_IsbL-1015_RLatLon0.09_PT014H.grib2 2026-05-02 20:43 779K
20260502T18Z_MSC_RDPS_WindV_AGL-10m_RLatLon0.09_PT014H.grib2 2026-05-02 20:43 431K
20260502T18Z_MSC_RDPS_WindV_AGL-120m_RLatLon0.09_PT014H.grib2 2026-05-02 20:43 420K
20260502T18Z_MSC_RDPS_WindV_AGL-40m_RLatLon0.09_PT014H.grib2 2026-05-02 20:43 539K
20260502T18Z_MSC_RDPS_WindV_AGL-80m_RLatLon0.09_PT014H.grib2 2026-05-02 20:43 537K
20260502T18Z_MSC_RDPS_WindV_IsbL-0001_RLatLon0.09_PT014H.grib2 2026-05-02 20:43 241K
20260502T18Z_MSC_RDPS_WindV_IsbL-0005_RLatLon0.09_PT014H.grib2 2026-05-02 20:43 280K
20260502T18Z_MSC_RDPS_WindV_IsbL-0010_RLatLon0.09_PT014H.grib2 2026-05-02 20:43 291K
20260502T18Z_MSC_RDPS_WindV_IsbL-0020_RLatLon0.09_PT014H.grib2 2026-05-02 20:43 309K
20260502T18Z_MSC_RDPS_WindV_IsbL-0030_RLatLon0.09_PT014H.grib2 2026-05-02 20:43 310K
20260502T18Z_MSC_RDPS_WindV_IsbL-0050_RLatLon0.09_PT014H.grib2 2026-05-02 20:43 339K
20260502T18Z_MSC_RDPS_WindV_IsbL-0100_RLatLon0.09_PT014H.grib2 2026-05-02 20:43 429K
20260502T18Z_MSC_RDPS_WindV_IsbL-0150_RLatLon0.09_PT014H.grib2 2026-05-02 20:43 401K
20260502T18Z_MSC_RDPS_WindV_IsbL-0175_RLatLon0.09_PT014H.grib2 2026-05-02 20:43 420K
20260502T18Z_MSC_RDPS_WindV_IsbL-0200_RLatLon0.09_PT014H.grib2 2026-05-02 20:43 336K
20260502T18Z_MSC_RDPS_WindV_IsbL-0225_RLatLon0.09_PT014H.grib2 2026-05-02 20:43 341K
20260502T18Z_MSC_RDPS_WindV_IsbL-0250_RLatLon0.09_PT014H.grib2 2026-05-02 20:43 343K
20260502T18Z_MSC_RDPS_WindV_IsbL-0275_RLatLon0.09_PT014H.grib2 2026-05-02 20:43 358K
20260502T18Z_MSC_RDPS_WindV_IsbL-0300_RLatLon0.09_PT014H.grib2 2026-05-02 20:43 354K
20260502T18Z_MSC_RDPS_WindV_IsbL-0350_RLatLon0.09_PT014H.grib2 2026-05-02 20:43 362K
20260502T18Z_MSC_RDPS_WindV_IsbL-0400_RLatLon0.09_PT014H.grib2 2026-05-02 20:43 365K
20260502T18Z_MSC_RDPS_WindV_IsbL-0450_RLatLon0.09_PT014H.grib2 2026-05-02 20:43 366K
20260502T18Z_MSC_RDPS_WindV_IsbL-0500_RLatLon0.09_PT014H.grib2 2026-05-02 20:43 470K
20260502T18Z_MSC_RDPS_WindV_IsbL-0550_RLatLon0.09_PT014H.grib2 2026-05-02 20:43 473K
20260502T18Z_MSC_RDPS_WindV_IsbL-0600_RLatLon0.09_PT014H.grib2 2026-05-02 20:43 480K
20260502T18Z_MSC_RDPS_WindV_IsbL-0650_RLatLon0.09_PT014H.grib2 2026-05-02 20:43 495K
20260502T18Z_MSC_RDPS_WindV_IsbL-0700_RLatLon0.09_PT014H.grib2 2026-05-02 20:43 518K
20260502T18Z_MSC_RDPS_WindV_IsbL-0750_RLatLon0.09_PT014H.grib2 2026-05-02 20:43 543K
20260502T18Z_MSC_RDPS_WindV_IsbL-0800_RLatLon0.09_PT014H.grib2 2026-05-02 20:43 583K
20260502T18Z_MSC_RDPS_WindV_IsbL-0850_RLatLon0.09_PT014H.grib2 2026-05-02 20:43 626K
20260502T18Z_MSC_RDPS_WindV_IsbL-0875_RLatLon0.09_PT014H.grib2 2026-05-02 20:43 645K
20260502T18Z_MSC_RDPS_WindV_IsbL-0900_RLatLon0.09_PT014H.grib2 2026-05-02 20:43 654K
20260502T18Z_MSC_RDPS_WindV_IsbL-0925_RLatLon0.09_PT014H.grib2 2026-05-02 20:43 664K
20260502T18Z_MSC_RDPS_WindV_IsbL-0950_RLatLon0.09_PT014H.grib2 2026-05-02 20:43 661K
20260502T18Z_MSC_RDPS_WindV_IsbL-0970_RLatLon0.09_PT014H.grib2 2026-05-02 20:43 660K
20260502T18Z_MSC_RDPS_WindV_IsbL-0985_RLatLon0.09_PT014H.grib2 2026-05-02 20:43 792K
20260502T18Z_MSC_RDPS_WindV_IsbL-1000_RLatLon0.09_PT014H.grib2 2026-05-02 20:43 786K
20260502T18Z_MSC_RDPS_WindV_IsbL-1015_RLatLon0.09_PT014H.grib2 2026-05-02 20:43 778K